This demonstration page uses our WeatherBlox Daily Observations layout. Learn more.

Left ArrowRight Arrow

39.01783, -85.05884

Hourly Observations for September 29, 2022

Temp ( °F °C ) Dew Point ( °F °C ) Humidity (%) Winds ( mph kmh ) Pressure ( in mb ) Visibility ( mi km ) Precip ( " mm )
12:52 am 00:52 Clear 50 10 43 6.1 77 77 N 7 11 30.43 1030 10 16 0.00 0.00
1:52 am 01:52 Clear 51 10.6 44 6.7 77 77 NNE 9 15 30.42 1030 10 16 0.00 0.00
2:52 am 02:52 Clear 50 10 43 6.1 77 77 NNE 7 11 30.42 1030 10 16 0.00 0.00
3:52 am 03:52 Clear 49 9.4 44 6.7 83 83 NNE 8 13 30.42 1030 10 16 0.00 0.00
4:52 am 04:52 Clear 49 9.4 45 7.2 86 86 NNE 8 13 30.42 1030 10 16 0.00 0.00
5:52 am 05:52 Clear 48 8.9 45 7.2 89 89 NE 8 13 30.42 1030 10 16 0.00 0.00
6:52 am 06:52 Clear 48 8.9 45 7.2 89 89 NE 9 15 30.42 1030 10 16 0.00 0.00
7:52 am 07:52 Mostly Sunny 47 8.3 45 7.2 93 93 NNE 8 13 30.43 1030 10 16 0.00 0.00
8:52 am 08:52 Mostly Sunny 49 9.4 46 7.8 90 90 NE 10 17 30.44 1031 10 16 0.00 0.00
9:52 am 09:52 Mostly Sunny 54 12.2 48 8.9 80 80 ENE 9 15 30.45 1031 10 16 0.00 0.00
10:52 am 10:52 Mostly Sunny 58 14.4 48 8.9 70 70 ENE 10 17 30.44 1031 10 16 0.00 0.00
11:52 am 11:52 Mostly Sunny 61 16.1 48 8.9 62 62 ENE 14 22 30.43 1031 10 16 0.00 0.00
12:52 pm 12:52 Mostly Cloudy 62 16.7 46 7.8 56 56 ENE 15 24 30.42 1030 10 16 0.00 0.00
1:52 pm 13:52 Mostly Cloudy 65 18.3 47 8.3 52 52 NE 13 20 30.40 1030 10 16 0.00 0.00
2:52 pm 14:52 Mostly Cloudy 63 17.2 45 7.2 52 52 ENE 14 22 30.37 1029 10 16 0.00 0.00
3:52 pm 15:52 Partly Cloudy 65 18.3 46 7.8 50 50 ENE 16 26 30.35 1028 10 16 0.00 0.00
4:52 pm 16:52 Partly Cloudy 64 17.8 46 7.8 52 52 ENE 13 20 30.34 1027 10 16 0.00 0.00
5:52 pm 17:52 Sunny 64 17.8 45 7.2 50 50 ENE 13 20 30.32 1027 10 16 0.00 0.00
6:52 pm 18:52 Mostly Sunny 63 17.2 46 7.8 54 54 ENE 12 19 30.31 1027 10 16 0.00 0.00
7:52 pm 19:52 Clear 60 15.6 47 8.3 62 62 E 9 15 30.30 1026 10 16 0.00 0.00
8:52 pm 20:52 Clear 58 14.4 47 8.3 67 67 ENE 9 15 30.30 1026 10 16 0.00 0.00
9:52 pm 21:52 Clear 57 13.9 47 8.3 69 69 ENE 10 17 30.31 1026 10 16 0.00 0.00
10:52 pm 22:52 Clear 55 12.8 46 7.8 72 72 E 13 20 30.31 1026 10 16 0.00 0.00
11:52 pm 23:52 Clear 52 11.1 46 7.8 80 80 E 13 20 30.31 1026 10 16 0.00 0.00

Powered by AerisWeather